Location: Baix
(44.7118°N, 4.7648°E)
Time: 01:02:58
(UTC+00:00)

Vanguard 3 - Pass Details

Date: 29 November 2020
Orbit: 508 x 3262 km, 33.3° (Epoch: 19 January)

Event Time Altitude Azimuth Distance (km) Brightness Sun altitude
Rises 23:10:51 0° 250° (WSW) 2,745 - -66.6°
Reaches altitude 10° 23:13:16 10° 232° (SW) 2,009 - -66.7°
Maximum altitude 23:16:38 21° 183° (S) 1,697 - -66.8°
Drops below altitude 10° 23:21:10 10° 137° (SE) 2,795 - -66.9°
Sets 23:25:19 0° 123° (ESE) 4,247 - -66.9°
